SBI1063 UUDD-UWKD

Flight info

Callsign SBI1063
Flight time 1h 8m
Altitude 37000
Route KOGOM L94 EKPIR M864 INKEB L94 UNORO T788 KOROM
Aircraft B738/M-SDE2E3FGHIRWXY/LB1

Departure

Time 2026-05-07 13:35
Airport Domodedovo International Airport (UUDD)

Arrival

Time 2026-05-07 14:43
Airport Kazan International Airport (UWKD)
Time Latitude Longitude Altitude Speed Heading
2026-05-07 13:07 55.41007 37.89524 574 ft 0 kts 54°
2026-05-07 13:19 55.40998 37.89500 576 ft 2 kts 57°
2026-05-07 13:19 55.40990 37.89475 574 ft 2 kts 61°
2026-05-07 13:20 55.40982 37.89449 574 ft 2 kts 70°
2026-05-07 13:20 55.40978 37.89421 575 ft 2 kts 90°
2026-05-07 13:20 55.40982 37.89394 575 ft 2 kts 131°
2026-05-07 13:20 55.40990 37.89381 575 ft 1 kts 145°
2026-05-07 13:26 55.40974 37.89400 577 ft 5 kts 145°
2026-05-07 13:26 55.40937 37.89446 573 ft 8 kts 145°
2026-05-07 13:26 55.40888 37.89505 570 ft 10 kts 150°
2026-05-07 13:27 55.40829 37.89482 575 ft 9 kts 228°
2026-05-07 13:27 55.40791 37.89390 571 ft 9 kts 234°
2026-05-07 13:27 55.40755 37.89301 571 ft 9 kts 234°
2026-05-07 13:27 55.40701 37.89275 574 ft 9 kts 157°
2026-05-07 13:28 55.40649 37.89334 573 ft 9 kts 144°
2026-05-07 13:28 55.40599 37.89398 566 ft 9 kts 144°
2026-05-07 13:28 55.40550 37.89460 565 ft 9 kts 144°
2026-05-07 13:28 55.40502 37.89520 563 ft 8 kts 144°
2026-05-07 13:29 55.40456 37.89578 566 ft 8 kts 144°
2026-05-07 13:29 55.40411 37.89634 561 ft 8 kts 144°
2026-05-07 13:29 55.40359 37.89690 563 ft 12 kts 149°
2026-05-07 13:29 55.40264 37.89794 558 ft 18 kts 143°
2026-05-07 13:30 55.40154 37.89931 555 ft 19 kts 145°
2026-05-07 13:30 55.40040 37.90070 553 ft 19 kts 145°
2026-05-07 13:30 55.39929 37.90206 550 ft 21 kts 145°
2026-05-07 13:30 55.39828 37.90331 548 ft 14 kts 144°
2026-05-07 13:31 55.39741 37.90437 549 ft 17 kts 147°
2026-05-07 13:31 55.39659 37.90529 544 ft 13 kts 148°
2026-05-07 13:31 55.39590 37.90508 543 ft 0 kts 231°
2026-05-07 13:33 55.39586 37.90497 543 ft 6 kts 233°
2026-05-07 13:33 55.39554 37.90416 543 ft 9 kts 238°
2026-05-07 13:33 55.39551 37.90306 542 ft 9 kts 293°
2026-05-07 13:33 55.39596 37.90232 545 ft 8 kts 324°
2026-05-07 13:34 55.39598 37.90229 543 ft 0 kts 324°
2026-05-07 13:34 55.40028 37.89745 560 ft 100 kts 325°
2026-05-07 13:34 55.40748 37.88828 575 ft 156 kts 320°
2026-05-07 13:35 55.41710 37.87535 824 ft 186 kts 322°
2026-05-07 13:35 55.42850 37.86164 1209 ft 210 kts 324°
2026-05-07 13:35 55.44072 37.84657 1676 ft 213 kts 311°
2026-05-07 13:35 55.44862 37.82677 2174 ft 181 kts 300°
2026-05-07 13:36 55.45550 37.81047 2574 ft 148 kts 303°
2026-05-07 13:36 55.46172 37.79697 3078 ft 140 kts 305°
2026-05-07 13:36 55.46690 37.78246 3591 ft 143 kts 287°
2026-05-07 13:36 55.47280 37.76820 4023 ft 156 kts 332°
2026-05-07 13:37 55.48412 37.76434 4529 ft 177 kts 342°
2026-05-07 13:37 55.49721 37.75821 4890 ft 205 kts 338°
2026-05-07 13:37 55.51132 37.75024 5381 ft 221 kts 336°
2026-05-07 13:37 55.52691 37.74627 5797 ft 235 kts
2026-05-07 13:38 55.54260 37.75584 6319 ft 244 kts 23°
2026-05-07 13:38 55.55766 37.77120 6781 ft 255 kts 27°
2026-05-07 13:38 55.57303 37.78775 7262 ft 263 kts 27°
2026-05-07 13:38 55.58895 37.80463 7726 ft 269 kts 27°
2026-05-07 13:39 55.60510 37.82149 8205 ft 275 kts 27°
2026-05-07 13:39 55.62182 37.83881 8662 ft 282 kts 27°
2026-05-07 13:39 55.63707 37.86157 9114 ft 294 kts 54°
2026-05-07 13:39 55.64467 37.89519 9624 ft 297 kts 86°
2026-05-07 13:40 55.64281 37.93138 10127 ft 296 kts 105°
2026-05-07 13:40 55.63811 37.96730 10592 ft 302 kts 107°
2026-05-07 13:40 55.63312 38.00358 11020 ft 314 kts 107°
2026-05-07 13:40 55.62799 38.04186 11503 ft 325 kts 106°
2026-05-07 13:41 55.62278 38.08168 12017 ft 337 kts 105°
2026-05-07 13:41 55.61747 38.12282 12519 ft 348 kts 105°
2026-05-07 13:41 55.61204 38.16523 13038 ft 358 kts 105°
2026-05-07 13:41 55.60647 38.20902 13552 ft 368 kts 105°
2026-05-07 13:42 55.60078 38.25382 14024 ft 378 kts 105°
2026-05-07 13:42 55.59496 38.29959 14497 ft 386 kts 105°
2026-05-07 13:42 55.58896 38.34647 14967 ft 394 kts 105°
2026-05-07 13:42 55.58290 38.39363 15436 ft 401 kts 104°
2026-05-07 13:43 55.58056 38.44319 15886 ft 412 kts 85°
2026-05-07 13:43 55.58766 38.49238 16382 ft 418 kts 64°
2026-05-07 13:43 55.60211 38.53722 16911 ft 421 kts 57°
2026-05-07 13:43 55.61763 38.58173 17312 ft 430 kts 57°
2026-05-07 13:44 55.63325 38.62749 17658 ft 438 kts 58°
2026-05-07 13:44 55.64891 38.67437 18012 ft 445 kts 58°
2026-05-07 13:44 55.66465 38.72212 18342 ft 452 kts 59°
2026-05-07 13:44 55.68059 38.77072 18652 ft 457 kts 59°
2026-05-07 13:45 55.69637 38.81888 18948 ft 458 kts 59°
2026-05-07 13:45 55.71239 38.86771 19257 ft 458 kts 59°
2026-05-07 13:45 55.72844 38.91667 19575 ft 458 kts 58°
2026-05-07 13:45 55.74687 38.96255 19882 ft 457 kts 46°
2026-05-07 13:46 55.76894 39.00300 20224 ft 456 kts 43°
2026-05-07 13:46 55.79156 39.04287 20548 ft 458 kts 43°
2026-05-07 13:46 55.81392 39.08358 20880 ft 461 kts 44°
2026-05-07 13:46 55.83615 39.12531 21218 ft 466 kts 45°
2026-05-07 13:47 55.85639 39.17060 21533 ft 473 kts 59°
2026-05-07 13:47 55.87122 39.22317 21911 ft 476 kts 64°
2026-05-07 13:47 55.88523 39.27583 22242 ft 479 kts 64°
2026-05-07 13:47 55.89977 39.33012 22600 ft 481 kts 63°
2026-05-07 13:48 55.91426 39.38337 22953 ft 483 kts 63°
2026-05-07 13:48 55.92910 39.43716 23311 ft 485 kts 63°
2026-05-07 13:48 55.94410 39.49120 23635 ft 486 kts 63°
2026-05-07 13:48 55.95915 39.54537 23937 ft 487 kts 63°
2026-05-07 13:49 55.97420 39.59967 24241 ft 488 kts 63°
2026-05-07 13:49 55.98925 39.65423 24547 ft 489 kts 63°
2026-05-07 13:49 56.00451 39.70871 24858 ft 490 kts 62°
2026-05-07 13:49 56.01846 39.76441 25167 ft 492 kts 70°
2026-05-07 13:50 56.02761 39.82251 25492 ft 493 kts 78°
2026-05-07 13:50 56.03187 39.88333 25801 ft 494 kts 88°
2026-05-07 13:50 56.03267 39.94497 26142 ft 494 kts 89°
2026-05-07 13:50 56.03302 40.00646 26471 ft 494 kts 89°
2026-05-07 13:51 56.03334 40.06799 26818 ft 493 kts 89°
2026-05-07 13:51 56.03378 40.12920 27125 ft 490 kts 89°
2026-05-07 13:51 56.03437 40.18996 27460 ft 486 kts 89°
2026-05-07 13:51 56.03504 40.25019 27798 ft 484 kts 88°
2026-05-07 13:52 56.03574 40.30962 28143 ft 483 kts 88°
2026-05-07 13:52 56.03643 40.36974 28491 ft 482 kts 88°
2026-05-07 13:52 56.03709 40.42972 28845 ft 481 kts 88°
2026-05-07 13:52 56.03770 40.48957 29211 ft 480 kts 89°
2026-05-07 13:53 56.03828 40.54926 29579 ft 479 kts 89°
2026-05-07 13:53 56.03882 40.60873 29937 ft 478 kts 89°
2026-05-07 13:53 56.03917 40.64810 30147 ft 478 kts 89°
2026-05-07 13:53 56.03968 40.70762 30471 ft 477 kts 89°
2026-05-07 13:54 56.04028 40.78605 30888 ft 475 kts 89°
2026-05-07 13:54 56.04055 40.82597 31107 ft 475 kts 89°
2026-05-07 13:54 56.04091 40.88510 31436 ft 473 kts 89°
2026-05-07 13:54 56.04124 40.94326 31762 ft 473 kts 89°
2026-05-07 13:55 56.04155 41.00205 32100 ft 471 kts 89°
2026-05-07 13:55 56.04183 41.06070 32435 ft 470 kts 89°
2026-05-07 13:55 56.04209 41.11906 32774 ft 469 kts 89°
2026-05-07 13:55 56.04232 41.17742 33124 ft 468 kts 89°
2026-05-07 13:56 56.04252 41.23556 33475 ft 466 kts 89°
2026-05-07 13:56 56.04270 41.29279 33828 ft 464 kts 89°
2026-05-07 13:56 56.04285 41.35034 34133 ft 462 kts 89°
2026-05-07 13:56 56.04297 41.40773 34438 ft 460 kts 90°
2026-05-07 13:57 56.04306 41.46492 34747 ft 458 kts 90°
2026-05-07 13:57 56.04313 41.52205 34873 ft 461 kts 90°
2026-05-07 13:57 56.04318 41.57959 34871 ft 465 kts 90°
2026-05-07 13:58 56.04318 41.69644 34881 ft 473 kts 90°
2026-05-07 13:58 56.04307 41.81389 34868 ft 475 kts 90°
2026-05-07 13:59 56.04285 41.93222 34866 ft 475 kts 90°
2026-05-07 13:59 56.04252 42.05044 34868 ft 475 kts 90°
2026-05-07 14:00 56.04208 42.16821 34870 ft 474 kts 90°
2026-05-07 14:00 56.04152 42.28616 34870 ft 473 kts 90°
2026-05-07 14:01 56.04086 42.40380 34871 ft 472 kts 90°
2026-05-07 14:01 56.04010 42.52127 34871 ft 471 kts 91°
2026-05-07 14:02 56.03898 42.63765 34869 ft 470 kts 91°
2026-05-07 14:02 56.03752 42.75462 34873 ft 469 kts 91°
2026-05-07 14:03 56.03600 42.87141 34881 ft 469 kts 91°
2026-05-07 14:03 56.03440 42.98815 34877 ft 470 kts 91°
2026-05-07 14:04 56.03271 43.10508 34878 ft 470 kts 91°
2026-05-07 14:04 56.03092 43.22137 34876 ft 470 kts 92°
2026-05-07 14:05 56.02929 43.33843 34878 ft 471 kts 89°
2026-05-07 14:05 56.03591 43.45498 34882 ft 471 kts 82°
2026-05-07 14:06 56.04446 43.57125 34885 ft 472 kts 82°
2026-05-07 14:06 56.05262 43.68728 34882 ft 472 kts 83°
2026-05-07 14:07 56.06039 43.80425 34881 ft 473 kts 83°
2026-05-07 14:07 56.06794 43.92112 34887 ft 473 kts 83°
2026-05-07 14:08 56.07542 44.03845 34883 ft 473 kts 83°
2026-05-07 14:08 56.08274 44.15490 34884 ft 473 kts 83°
2026-05-07 14:09 56.09002 44.27229 34889 ft 473 kts 83°
2026-05-07 14:09 56.09717 44.38966 34895 ft 473 kts 83°
2026-05-07 14:10 56.10417 44.50622 34896 ft 473 kts 83°
2026-05-07 14:10 56.11112 44.62354 34898 ft 473 kts 84°
2026-05-07 14:11 56.11277 44.74135 34909 ft 473 kts 92°
2026-05-07 14:11 56.10937 44.85909 34908 ft 473 kts 93°
2026-05-07 14:12 56.10663 44.97685 34913 ft 473 kts 92°
2026-05-07 14:12 56.10413 45.09472 34912 ft 473 kts 92°
2026-05-07 14:13 56.10130 45.21254 34919 ft 473 kts 92°
2026-05-07 14:13 56.09840 45.32961 34922 ft 473 kts 92°
2026-05-07 14:14 56.09539 45.44753 34932 ft 473 kts 93°
2026-05-07 14:14 56.09230 45.56474 34921 ft 473 kts 93°
2026-05-07 14:14 56.09070 45.62385 34620 ft 477 kts 93°
2026-05-07 14:15 56.08906 45.68334 34315 ft 476 kts 93°
2026-05-07 14:15 56.08740 45.74229 33993 ft 473 kts 93°
2026-05-07 14:15 56.08572 45.80102 33652 ft 472 kts 93°
2026-05-07 14:15 56.08402 45.85985 33297 ft 472 kts 93°
2026-05-07 14:16 56.08228 45.91869 32939 ft 473 kts 93°
2026-05-07 14:16 56.08052 45.97744 32606 ft 473 kts 93°
2026-05-07 14:16 56.07873 46.03607 32258 ft 469 kts 93°
2026-05-07 14:16 56.07693 46.09425 31913 ft 465 kts 94°
2026-05-07 14:17 56.07512 46.15200 31572 ft 464 kts 94°
2026-05-07 14:17 56.07330 46.20911 31261 ft 465 kts 94°
2026-05-07 14:17 56.07142 46.26704 30944 ft 466 kts 94°
2026-05-07 14:17 56.06952 46.32502 30622 ft 466 kts 94°
2026-05-07 14:18 56.06761 46.38300 30304 ft 467 kts 94°
2026-05-07 14:18 56.06565 46.44114 29986 ft 467 kts 94°
2026-05-07 14:18 56.06291 46.49913 29474 ft 470 kts 99°
2026-05-07 14:18 56.05589 46.55634 28998 ft 470 kts 109°
2026-05-07 14:19 56.04462 46.61117 28554 ft 470 kts 112°
2026-05-07 14:19 56.03258 46.66564 28095 ft 471 kts 113°
2026-05-07 14:19 56.02045 46.72004 27648 ft 472 kts 113°
2026-05-07 14:19 56.00840 46.77468 27200 ft 472 kts 112°
2026-05-07 14:20 55.99664 46.82864 26751 ft 472 kts 112°
2026-05-07 14:20 55.98482 46.88329 26324 ft 472 kts 112°
2026-05-07 14:20 55.97303 46.93799 25906 ft 472 kts 112°
2026-05-07 14:20 55.96122 46.99276 25485 ft 471 kts 112°
2026-05-07 14:21 55.94945 47.04712 25113 ft 468 kts 112°
2026-05-07 14:21 55.93780 47.10083 24739 ft 458 kts 112°
2026-05-07 14:21 55.92636 47.15336 24366 ft 450 kts 112°
2026-05-07 14:21 55.91511 47.20483 24010 ft 441 kts 112°
2026-05-07 14:22 55.90404 47.25539 23661 ft 434 kts 112°
2026-05-07 14:22 55.89311 47.30519 23270 ft 427 kts 112°
2026-05-07 14:22 55.88251 47.35341 22862 ft 421 kts 112°
2026-05-07 14:22 55.87186 47.40176 22457 ft 415 kts 112°
2026-05-07 14:23 55.86136 47.44933 22055 ft 409 kts 112°
2026-05-07 14:23 55.85098 47.49623 21660 ft 405 kts 112°
2026-05-07 14:23 55.84066 47.54279 21276 ft 403 kts 112°
2026-05-07 14:23 55.83039 47.58902 20899 ft 400 kts 112°
2026-05-07 14:24 55.82018 47.63485 20569 ft 396 kts 112°
2026-05-07 14:24 55.81005 47.68028 20236 ft 393 kts 112°
2026-05-07 14:24 55.80013 47.72471 19924 ft 390 kts 112°
2026-05-07 14:24 55.79013 47.76934 19604 ft 387 kts 112°
2026-05-07 14:25 55.78014 47.81380 19288 ft 385 kts 112°
2026-05-07 14:25 55.77018 47.85781 18973 ft 383 kts 113°
2026-05-07 14:25 55.76023 47.90152 18673 ft 381 kts 113°
2026-05-07 14:25 55.75032 47.94499 18367 ft 379 kts 113°
2026-05-07 14:26 55.74041 47.98833 18029 ft 377 kts 113°
2026-05-07 14:26 55.73057 48.03134 17707 ft 375 kts 113°
2026-05-07 14:26 55.72080 48.07400 17419 ft 371 kts 113°
2026-05-07 14:26 55.71105 48.11646 17133 ft 372 kts 113°
2026-05-07 14:27 55.70137 48.15856 16856 ft 375 kts 113°
2026-05-07 14:27 55.69149 48.20144 16570 ft 375 kts 113°
2026-05-07 14:27 55.68163 48.24418 16286 ft 373 kts 113°
2026-05-07 14:27 55.67181 48.28666 16002 ft 371 kts 113°
2026-05-07 14:28 55.66202 48.32888 15729 ft 369 kts 112°
2026-05-07 14:28 55.65230 48.37080 15449 ft 367 kts 112°
2026-05-07 14:28 55.64258 48.41261 15182 ft 366 kts 112°
2026-05-07 14:28 55.63301 48.45364 14914 ft 364 kts 112°
2026-05-07 14:29 55.62304 48.49545 14601 ft 364 kts 115°
2026-05-07 14:29 55.61145 48.53428 14287 ft 359 kts 120°
2026-05-07 14:29 55.59874 48.57188 13980 ft 354 kts 122°
2026-05-07 14:29 55.58584 48.60896 13652 ft 350 kts 122°
2026-05-07 14:30 55.57319 48.64547 13305 ft 346 kts 122°
2026-05-07 14:30 55.56078 48.68169 12965 ft 342 kts 121°
2026-05-07 14:30 55.54863 48.71753 12627 ft 339 kts 121°
2026-05-07 14:30 55.53677 48.75268 12293 ft 336 kts 120°
2026-05-07 14:31 55.52489 48.78799 11956 ft 332 kts 120°
2026-05-07 14:31 55.51316 48.82288 11623 ft 326 kts 120°
2026-05-07 14:31 55.50172 48.85688 11287 ft 316 kts 120°
2026-05-07 14:31 55.49065 48.88974 10959 ft 307 kts 120°
2026-05-07 14:32 55.47985 48.92181 10630 ft 300 kts 120°
2026-05-07 14:32 55.46942 48.95277 10354 ft 292 kts 120°
2026-05-07 14:32 55.45909 48.98331 10067 ft 288 kts 119°
2026-05-07 14:32 55.44885 49.01357 9737 ft 286 kts 119°
2026-05-07 14:33 55.43868 49.04357 9389 ft 284 kts 119°
2026-05-07 14:33 55.42856 49.07334 9042 ft 282 kts 119°
2026-05-07 14:33 55.41871 49.10227 8705 ft 276 kts 119°
2026-05-07 14:33 55.40896 49.13089 8368 ft 270 kts 119°
2026-05-07 14:34 55.39935 49.15909 8034 ft 266 kts 118°
2026-05-07 14:34 55.38989 49.18682 7698 ft 262 kts 118°
2026-05-07 14:34 55.38056 49.21414 7380 ft 258 kts 118°
2026-05-07 14:34 55.37136 49.24104 7065 ft 254 kts 118°
2026-05-07 14:35 55.36229 49.26751 6745 ft 252 kts 118°
2026-05-07 14:35 55.35344 49.29396 6413 ft 248 kts 111°
2026-05-07 14:35 55.35032 49.32228 6068 ft 237 kts 80°
2026-05-07 14:35 55.35552 49.34876 5776 ft 226 kts 54°
2026-05-07 14:36 55.36588 49.36876 5445 ft 219 kts 37°
2026-05-07 14:36 55.37802 49.38475 5126 ft 216 kts 34°
2026-05-07 14:36 55.39016 49.40011 4857 ft 213 kts 34°
2026-05-07 14:36 55.40215 49.41542 4614 ft 212 kts 34°
2026-05-07 14:37 55.41411 49.43080 4321 ft 212 kts 35°
2026-05-07 14:37 55.43755 49.45976 3780 ft 202 kts 33°
2026-05-07 14:37 55.44911 49.47355 3495 ft 198 kts 34°
2026-05-07 14:38 55.46036 49.48702 3229 ft 194 kts 35°
2026-05-07 14:38 55.47137 49.50024 2962 ft 189 kts 35°
2026-05-07 14:38 55.48218 49.51320 2724 ft 184 kts 32°
2026-05-07 14:38 55.49379 49.51956 2673 ft 168 kts
2026-05-07 14:39 55.50473 49.51728 2678 ft 157 kts 338°
2026-05-07 14:39 55.51346 49.50519 2733 ft 162 kts 321°
2026-05-07 14:39 55.52139 49.49150 2686 ft 161 kts 311°
2026-05-07 14:39 55.52869 49.47647 2688 ft 163 kts 313°
2026-05-07 14:40 55.53579 49.46060 2523 ft 166 kts 309°
2026-05-07 14:40 55.54234 49.44422 2330 ft 161 kts 307°
2026-05-07 14:40 55.54856 49.42807 2137 ft 158 kts 307°
2026-05-07 14:40 55.55507 49.41166 1914 ft 164 kts 306°
2026-05-07 14:41 55.56136 49.39502 1697 ft 161 kts 307°
2026-05-07 14:41 55.56758 49.37879 1499 ft 161 kts 306°
2026-05-07 14:41 55.57393 49.36247 1277 ft 159 kts 307°
2026-05-07 14:41 55.58012 49.34633 1067 ft 159 kts 307°
2026-05-07 14:42 55.58639 49.33011 850 ft 161 kts 307°
2026-05-07 14:42 55.59263 49.31394 643 ft 157 kts 306°
2026-05-07 14:42 55.59881 49.29814 473 ft 152 kts 306°
2026-05-07 14:42 55.60439 49.28416 412 ft 128 kts 302°
2026-05-07 14:43 55.60822 49.27378 409 ft 73 kts 304°
2026-05-07 14:43 55.60970 49.27001 412 ft 25 kts 302°
2026-05-07 14:43 55.61034 49.26820 414 ft 15 kts 302°
2026-05-07 14:43 55.61118 49.26800 414 ft 14 kts 33°
2026-05-07 14:44 55.61192 49.26890 413 ft 10 kts 34°
2026-05-07 14:44 55.61225 49.26944 409 ft 10 kts 73°
2026-05-07 14:44 55.61198 49.27053 412 ft 10 kts 126°
2026-05-07 14:44 55.61159 49.27149 412 ft 9 kts 126°
2026-05-07 14:45 55.61123 49.27245 415 ft 9 kts 123°
2026-05-07 14:45 55.61089 49.27338 410 ft 9 kts 123°
2026-05-07 14:45 55.61055 49.27428 411 ft 9 kts 123°
2026-05-07 14:45 55.61020 49.27515 414 ft 8 kts 125°
2026-05-07 14:46 55.60987 49.27598 413 ft 8 kts 125°
2026-05-07 14:46 55.60949 49.27697 413 ft 11 kts 123°
2026-05-07 14:46 55.60900 49.27828 408 ft 14 kts 124°
2026-05-07 14:46 55.60840 49.27985 408 ft 16 kts 124°
2026-05-07 14:47 55.60775 49.28154 410 ft 18 kts 124°
2026-05-07 14:47 55.60707 49.28331 412 ft 16 kts 124°
2026-05-07 14:47 55.60644 49.28498 410 ft 15 kts 123°
2026-05-07 14:47 55.60594 49.28654 413 ft 15 kts 104°
2026-05-07 14:48 55.60584 49.28848 415 ft 17 kts 95°
2026-05-07 14:48 55.60576 49.29051 415 ft 16 kts 88°
2026-05-07 14:48 55.60630 49.29204 413 ft 14 kts 37°
2026-05-07 14:48 55.60698 49.29282 415 ft 11 kts 33°
2026-05-07 14:49 55.60760 49.29357 415 ft 11 kts 36°
2026-05-07 14:49 55.60812 49.29441 415 ft 10 kts 74°
2026-05-07 14:49 55.60785 49.29551 412 ft 10 kts 126°
2026-05-07 14:49 55.60747 49.29651 413 ft 10 kts 123°
2026-05-07 14:50 55.60728 49.29703 409 ft 0 kts 122°
2026-05-07 14:50 55.60726 49.29707 410 ft 2 kts 120°
2026-05-07 14:50 55.60722 49.29720 412 ft 2 kts 117°
2026-05-07 14:50 55.60731 49.29786 413 ft 1 kts 45°
2026-05-07 14:51 55.60732 49.29787 407 ft 1 kts 44°
2026-05-07 14:51 55.60760 49.29823 415 ft 0 kts 33°